Regional Weather Roundup
Issued by NWS

Home | Current Version | Previous Version | Text Only | Print | Product List | Glossary On
Versions: 1 2 3 4 5 6 7 8 9 10 11 12 13 14 15 16 17 18 19 20 21 22 23 24 25 26 27 28 29 30 31 32 33 34 35 36 37 38 39 40 41 42 43 44 45 46 47 48 49 50
000
ASUS44 KJAN 231710
RWRMS

MISSISSIPPI HOURLY WEATHER ROUNDUP
NATIONAL WEATHER SERVICE JACKSON MS
1200 PM CDT THU OCT 23 2014

NOTE: "FAIR: INDICATES FEW OR NO CLOUDS BELOW 12,000 FEET WITH NO
SIGNIFICANT WEATHER AND/OR OBSTRUCTIONS TO VISIBILITY.

MSZ001>002-007>008-010>013-018>021-025>028-034>036-231800-
NORTHWEST MISSISSIPPI

CITY           SKY/WX    TMP DP  RH WIND       PRES   REMARKS
CLARKSDALE     FAIR      61  46  59 CALM      30.21S
CLEVELAND      FAIR      59  49  69 CALM      30.19S
GREENWOOD      NOT AVBL
GREENVILLE     CLOUDY    61  48  62 CALM      30.18F
GRENADA          N/A    N/A N/A N/A MISG        N/A
OLIVE BRANCH   PTSUNNY   57  46  67 CALM      30.20F
OXFORD         FAIR      59  41  51 CALM      30.20F
TUNICA         CLOUDY    61  45  55 CALM      30.21S
$$

MSZ003>006-009-014>017-022>024-029>033-037>039-231800-
NORTHEAST MISSISSIPPI

CITY           SKY/WX    TMP DP  RH WIND       PRES   REMARKS
COLUMBUS AFB   MOSUNNY   62  45  54 VRB2      30.17F
CORINTH        FAIR      59  43  55 CALM      30.19F
GOLDN TRIANGLE MOSUNNY   63  43  48 N5        30.17F
STARKVILLE     FAIR      61  45  55 CALM      30.17F
TUPELO         PTSUNNY   61  44  53 CALM      30.18F
$$

MSZ040-058-231800-
CENTRAL MISSISSIPPI

CITY           SKY/WX    TMP DP  RH WIND       PRES   REMARKS
JACKSON INTL   PTSUNNY   65  43  44 E7        30.16F
JACKSON HAWKNS PTSUNNY   65  43  44 SE6       30.16F
MERIDIAN KEY   SUNNY     66  43  43 VRB3      30.15F
MERIDIAN NAS   MOSUNNY   67  44  43 NW6       30.16F
RAYMOND        FAIR      64  59  82 MISG      30.15F
VICKSBURG        N/A     64  45  49 MISG      30.17S
$$

MSZ059>079-231800-
SOUTH MISSISSIPPI

CITY           SKY/WX    TMP DP  RH WIND       PRES   REMARKS
BROOKHAVEN     FAIR      66  45  45 E3        30.15F
COLUMBIA         N/A    N/A N/A N/A MISG        N/A
HATTIESBURG    SUNNY     67  44  43 NE6       30.15F
MCCOMB         MOSUNNY   67  44  43 E8        30.13F
NATCHEZ        CLOUDY    63  50  63 NE6       30.15F
PINE BELT      SUNNY     66  43  42 E7        30.16S
$$

MSZ080>082-231800-
COASTAL MISSISSIPPI

CITY           SKY/WX    TMP DP  RH WIND       PRES   REMARKS
BAY ST LOUIS   SUNNY     72  39  30 NE7       30.12F
BILOXI         SUNNY     71  46  40 NE7       30.11F
PASCAGOULA     SUNNY     70  47  43 VRB3      30.11F
GULFPORT       SUNNY     70  44  39 E6        30.11F
$$



USA.gov is the U.S. government's official web portal to all federal, state and local government web resources and services.